Hourly Weather Rudaki

Today, 21 April, Wednesday

Time Temperature Precipitation Wind Pressure Humidity
00:00 +4°C° 0 mm 2 mps 741 mmHg 88%
01:00 +3°C° 0 mm 2 mps 741 mmHg 87%
02:00 +3°C° 0 mm 2 mps 740 mmHg 87%
03:00 +3°C° 0 mm 2 mps 740 mmHg 88%
04:00 +3°C° 0 mm 2 mps 740 mmHg 88%
05:00 +4°C° 0 mm 1 mps 739 mmHg 88%
06:00 +4°C° 0 mm 2 mps 739 mmHg 83%
07:00 +4°C° 0 mm 2 mps 739 mmHg 78%
08:00 +5°C° 0 mm 2 mps 739 mmHg 72%
09:00 +6°C° 0 mm 2 mps 739 mmHg 70%
10:00 +7°C° 0 mm 3 mps 739 mmHg 67%
11:00 +8°C° 0 mm 3 mps 739 mmHg 64%
12:00 +8°C° 0.1 mm 3 mps 739 mmHg 66%
13:00 +7°C° 0.1 mm 4 mps 739 mmHg 69%
14:00 +7°C° 0.1 mm 4 mps 739 mmHg 71%
15:00 +7°C° 0.1 mm 4 mps 739 mmHg 69%
16:00 +8°C° 0.1 mm 3 mps 739 mmHg 68%
17:00 +8°C° 0.1 mm 3 mps 739 mmHg 66%
18:00 +7°C° 0 mm 3 mps 739 mmHg 71%
19:00 +5°C° 0 mm 3 mps 740 mmHg 75%
20:00 +5°C° 0 mm 2 mps 740 mmHg 80%
21:00 +4°C° 0 mm 3 mps 740 mmHg 81%
22:00 +4°C° 0 mm 3 mps 740 mmHg 81%
23:00 +4°C° 0 mm 3 mps 740 mmHg 82%

Tomorrow, 22 April, Thursday

Time Temperature Precipitation Wind Pressure Humidity
00:00 +3°C° 0 mm 3 mps 740 mmHg 84%
01:00 +3°C° 0 mm 3 mps 740 mmHg 86%
02:00 +3°C° 0 mm 3 mps 740 mmHg 89%
03:00 +3°C° 0 mm 3 mps 740 mmHg 91%
04:00 +3°C° 0 mm 3 mps 740 mmHg 93%
05:00 +3°C° 0 mm 3 mps 740 mmHg 95%
06:00 +4°C° 0 mm 3 mps 741 mmHg 89%
07:00 +7°C° 0 mm 3 mps 741 mmHg 83%
08:00 +8°C° 0 mm 4 mps 741 mmHg 76%
09:00 +10°C° 0.3 mm 4 mps 741 mmHg 71%
10:00 +12°C° 0.3 mm 5 mps 741 mmHg 66%
11:00 +13°C° 0.3 mm 5 mps 741 mmHg 61%
12:00 +13°C° 0.6 mm 5 mps 741 mmHg 61%
13:00 +14°C° 0.6 mm 6 mps 740 mmHg 60%
14:00 +14°C° 0.6 mm 6 mps 740 mmHg 59%
15:00 +14°C° 0.4 mm 5 mps 740 mmHg 61%
16:00 +13°C° 0.4 mm 5 mps 740 mmHg 62%
17:00 +13°C° 0.4 mm 5 mps 740 mmHg 63%
18:00 +11°C° 0.1 mm 4 mps 740 mmHg 68%
19:00 +10°C° 0.1 mm 3 mps 740 mmHg 73%
20:00 +9°C° 0.1 mm 3 mps 740 mmHg 78%
21:00 +8°C° 1 mm 3 mps 740 mmHg 83%
22:00 +8°C° 1 mm 3 mps 740 mmHg 88%
23:00 +8°C° 1 mm 3 mps 740 mmHg 93%

Day after tomorrow, 23 April, Friday

Time Temperature Precipitation Wind Pressure Humidity
00:00 +7°C° 0.5 mm 3 mps 741 mmHg 90%
01:00 +6°C° 0.5 mm 4 mps 741 mmHg 86%
02:00 +5°C° 0.5 mm 4 mps 741 mmHg 83%
03:00 +5°C° 0 mm 4 mps 742 mmHg 83%
04:00 +4°C° 0 mm 4 mps 742 mmHg 83%
05:00 +4°C° 0 mm 4 mps 742 mmHg 83%
06:00 +4°C° 0 mm 4 mps 742 mmHg 79%
07:00 +4°C° 0 mm 4 mps 743 mmHg 75%
08:00 +5°C° 0 mm 4 mps 743 mmHg 71%
09:00 +5°C° 0 mm 4 mps 743 mmHg 67%
10:00 +6°C° 0 mm 4 mps 743 mmHg 64%
11:00 +6°C° 0 mm 4 mps 743 mmHg 60%
12:00 +7°C° 0 mm 4 mps 743 mmHg 57%
13:00 +7°C° 0 mm 4 mps 743 mmHg 54%
14:00 +7°C° 0 mm 4 mps 743 mmHg 51%
15:00 +7°C° 0 mm 4 mps 743 mmHg 52%
16:00 +8°C° 0 mm 3 mps 742 mmHg 53%
17:00 +8°C° 0 mm 3 mps 742 mmHg 54%
18:00 +7°C° 0 mm 3 mps 742 mmHg 60%
19:00 +6°C° 0 mm 2 mps 742 mmHg 66%
20:00 +5°C° 0 mm 2 mps 742 mmHg 72%
21:00 +5°C° 0 mm 2 mps 742 mmHg 74%
22:00 +4°C° 0 mm 2 mps 741 mmHg 75%
23:00 +4°C° 0 mm 2 mps 741 mmHg 77%

24 April, Saturday

Time Temperature Precipitation Wind Pressure Humidity
00:00 +3°C° 0 mm 2 mps 741 mmHg 80%
01:00 +3°C° 0 mm 2 mps 741 mmHg 82%
02:00 +2°C° 0 mm 2 mps 740 mmHg 85%
03:00 +1°C° 0 mm 2 mps 740 mmHg 88%
04:00 0°C° 0 mm 3 mps 740 mmHg 90%
05:00 -1°C° 0 mm 3 mps 740 mmHg 93%
06:00 0°C° 0 mm 3 mps 740 mmHg 89%
07:00 0°C° 0 mm 4 mps 740 mmHg 85%
08:00 +1°C° 0 mm 4 mps 740 mmHg 81%
09:00 +1°C° 0.1 mm 4 mps 740 mmHg 78%
10:00 +1°C° 0.1 mm 4 mps 740 mmHg 75%
11:00 +3°C° 0.1 mm 4 mps 741 mmHg 72%
12:00 +2°C° 0.1 mm 5 mps 741 mmHg 68%
13:00 +3°C° 0.1 mm 5 mps 740 mmHg 63%
14:00 +3°C° 0.1 mm 5 mps 740 mmHg 58%
15:00 +3°C° 0.1 mm 5 mps 740 mmHg 62%
16:00 +3°C° 0.1 mm 5 mps 740 mmHg 65%
17:00 +3°C° 0.1 mm 5 mps 740 mmHg 69%
18:00 +2°C° 0 mm 5 mps 741 mmHg 74%
19:00 +1°C° 0 mm 4 mps 741 mmHg 79%
20:00 +1°C° 0 mm 3 mps 741 mmHg 85%
21:00 +1°C° 0 mm 3 mps 741 mmHg 86%
22:00 +1°C° 0 mm 3 mps 741 mmHg 87%
23:00 +1°C° 0 mm 3 mps 741 mmHg 89%

25 April, Sunday

Time Temperature Precipitation Wind Pressure Humidity
00:00 0°C° 0 mm 3 mps 741 mmHg 90%
01:00 0°C° 0 mm 3 mps 740 mmHg 91%
02:00 -1°C° 0 mm 3 mps 740 mmHg 92%
03:00 -1°C° 0 mm 3 mps 740 mmHg 93%
04:00 -2°C° 0 mm 3 mps 740 mmHg 94%
05:00 -2°C° 0 mm 3 mps 740 mmHg 95%
06:00 -1°C° 0 mm 3 mps 740 mmHg 86%
07:00 0°C° 0 mm 3 mps 740 mmHg 77%
08:00 +1°C° 0 mm 4 mps 740 mmHg 68%
09:00 +3°C° 0.1 mm 4 mps 740 mmHg 61%
10:00 +2°C° 0.1 mm 5 mps 740 mmHg 54%
11:00 +3°C° 0.1 mm 5 mps 740 mmHg 48%
12:00 +3°C° 0.3 mm 5 mps 740 mmHg 53%
13:00 +3°C° 0.3 mm 5 mps 739 mmHg 59%
14:00 +3°C° 0.3 mm 5 mps 739 mmHg 64%
15:00 +4°C° 0.3 mm 4 mps 739 mmHg 65%
16:00 +4°C° 0.3 mm 4 mps 739 mmHg 65%
17:00 +4°C° 0.3 mm 4 mps 739 mmHg 65%
18:00 +3°C° 0.2 mm 4 mps 739 mmHg 73%
19:00 +1°C° 0.2 mm 4 mps 740 mmHg 80%
20:00 +1°C° 0.2 mm 3 mps 740 mmHg 88%
21:00 0°C° 0 mm 3 mps 740 mmHg 91%
22:00 0°C° 0 mm 3 mps 740 mmHg 93%
23:00 0°C° 0 mm 3 mps 740 mmHg 96%

26 April, Monday

Time Temperature Precipitation Wind Pressure Humidity
00:00 0°C° 0 mm 3 mps 740 mmHg 95%
01:00 0°C° 0 mm 3 mps 740 mmHg 94%
02:00 0°C° 0 mm 3 mps 740 mmHg 93%
03:00 0°C° 0.1 mm 3 mps 740 mmHg 94%
04:00 0°C° 0.1 mm 3 mps 740 mmHg 96%
05:00 -1°C° 0.1 mm 4 mps 740 mmHg 97%
06:00 -1°C° 0.1 mm 4 mps 741 mmHg 92%
07:00 0°C° 0.1 mm 4 mps 741 mmHg 86%
08:00 0°C° 0.1 mm 5 mps 741 mmHg 81%
09:00 0°C° 0.1 mm 5 mps 741 mmHg 79%
10:00 0°C° 0.1 mm 5 mps 741 mmHg 77%
11:00 +1°C° 0.1 mm 5 mps 741 mmHg 75%
12:00 +1°C° 0.1 mm 5 mps 741 mmHg 74%
13:00 +1°C° 0.1 mm 5 mps 742 mmHg 74%
14:00 +1°C° 0.1 mm 5 mps 742 mmHg 74%
15:00 +1°C° 0 mm 5 mps 741 mmHg 76%
16:00 +1°C° 0 mm 5 mps 741 mmHg 78%
17:00 +1°C° 0 mm 5 mps 741 mmHg 80%
18:00 +1°C° 0.1 mm 4 mps 741 mmHg 86%
19:00 0°C° 0.1 mm 4 mps 741 mmHg 91%
20:00 -1°C° 0.1 mm 4 mps 741 mmHg 97%
21:00 -1°C° 0.2 mm 4 mps 741 mmHg 97%
22:00 0°C° 0.2 mm 4 mps 740 mmHg 97%
23:00 0°C° 0.2 mm 4 mps 740 mmHg 97%
Show more